Phnom Penh, Cambodia

1:08 AM +07 on June 29, 2017 (GMT +0700)
Pochentong International

Weather History for VDPP - March, 2014

Change the Weather History Date:

Thursday, March 13, 2014

  Actual Average Record
Temperature  
Mean Temperature 86 °F -  
Max Temperature 95 °F 91 °F 98 °F (2017)
Min Temperature 77 °F 77 °F 75 °F (2001)
Cooling Degree Days 21    
Growing Degree Days 36 (Base 50)    
Moisture  
Dew Point 67 °F    
Average Humidity 51    
Maximum Humidity 78    
Minimum Humidity 34    
Precipitation  
Precipitation 0.00 in - - ()
Sea Level Pressure  
Sea Level Pressure 29.82 in    
Wind  
Wind Speed 7 mph ()    
Max Wind Speed 13 mph    
Max Gust Speed -    
Visibility 5.7 miles    
Events      
Averages and records for this station are not official NWS values.
T = Trace of Precipitation, MM = Missing Value Source: Averaged Metar Reports

Daily Weather History Graph

Daily Weather History Graph

Search for Another Location

Airport or City:

Trip Planner

Search our weather history database for the weather conditions in past years. The results will help you decide how hot, cold, wet, or windy it might be!

Date:

Astronomy

Mar. 13, 2014 Rise Set
Actual Time 6:09 AM +07 6:11 PM +07
Civil Twilight 5:48 AM +07 6:32 PM +07
Nautical Twilight 5:23 AM +07 6:56 PM +07
Astronomical Twilight 4:59 AM +07 7:21 PM +07
Moon 3:31 PM +07 (3/13) 3:29 AM +07 (3/13)
Length of Visible Light 12h 44m
Length of Day
12h 01m
Waxing Gibbous, 89% of the Moon is Illuminated
Mar 13
Waxing Gibbous
Mar 17
Full
Mar 24
Last Quarter
Mar 31
New
Apr 7
First Quarter

Hourly Weather History & Observations

Time (+07) Temp. Heat Index Dew Point Humidity Pressure Visibility Wind Dir Wind Speed Gust Speed Precip Events Conditions
12:00 AM 82.4 °F 86.3 °F 69.8 °F 66% 29.86 in 5.6 mi South 8.1 mph - N/A   Unknown
12:30 AM 80.6 °F 84.6 °F 71.6 °F 74% 29.86 in 5.6 mi South 8.1 mph - N/A   Unknown
1:00 AM 82.4 °F 87.2 °F 71.6 °F 70% 29.86 in 5.6 mi South 9.2 mph - N/A   Unknown
6:00 AM 77.0 °F - 69.8 °F 78% 29.83 in 5.0 mi South 8.1 mph - N/A   Unknown
6:30 AM 77.0 °F - 69.8 °F 78% 29.86 in 5.0 mi SSW 6.9 mph - N/A   Unknown
7:00 AM 78.8 °F - 69.8 °F 74% 29.86 in 5.0 mi SSW 9.2 mph - N/A   Unknown
7:30 AM 78.8 °F - 69.8 °F 74% 29.86 in 5.0 mi South 9.2 mph - N/A   Unknown
8:00 AM 80.6 °F 84.6 °F 71.6 °F 74% 29.89 in 5.6 mi South 11.5 mph - N/A   Unknown
8:30 AM 82.4 °F 87.2 °F 71.6 °F 70% 29.89 in 5.6 mi South 9.2 mph - N/A   Unknown
9:00 AM 84.2 °F 87.3 °F 68.0 °F 58% 29.89 in - South 10.4 mph - N/A   Clear
9:30 AM 86.0 °F 88.2 °F 66.2 °F 51% 29.92 in - South 8.1 mph - N/A   Clear
10:00 AM 87.8 °F 91.4 °F 68.0 °F 52% 29.92 in - SW 6.9 mph - N/A   Clear
10:30 AM 89.6 °F 93.4 °F 68.0 °F 49% 29.89 in - WNW 3.5 mph - N/A   Clear
11:00 AM 91.4 °F 94.0 °F 66.2 °F 43% 29.89 in - West 3.5 mph - N/A   Clear
11:30 AM 91.4 °F 93.2 °F 64.4 °F 41% 29.86 in - SW 4.6 mph - N/A   Clear
12:00 PM 93.2 °F 94.9 °F 64.4 °F 38% 29.86 in 6.2 mi SSW 4.6 mph - N/A   Partly Cloudy
12:30 PM 93.2 °F 94.1 °F 62.6 °F 36% 29.83 in 6.2 mi West 5.8 mph - N/A   Partly Cloudy
1:00 PM 93.2 °F 94.1 °F 62.6 °F 36% 29.83 in - West 2.3 mph - N/A   Clear
1:30 PM 95.0 °F 97.0 °F 64.4 °F 36% 29.80 in 6.2 mi NNE 5.8 mph - N/A   Partly Cloudy
2:00 PM 95.0 °F 97.0 °F 64.4 °F 36% 29.77 in 6.2 mi ENE 12.7 mph - N/A   Partly Cloudy
2:30 PM 95.0 °F 97.0 °F 64.4 °F 36% 29.77 in 6.2 mi ENE 12.7 mph - N/A   Partly Cloudy
3:00 PM 95.0 °F 97.0 °F 64.4 °F 36% 29.74 in 6.2 mi ESE 6.9 mph - N/A   Partly Cloudy
3:30 PM 95.0 °F 97.0 °F 64.4 °F 36% 29.74 in 6.2 mi East 5.8 mph - N/A   Partly Cloudy
4:00 PM 95.0 °F 96.0 °F 62.6 °F 34% 29.74 in 6.2 mi ESE 5.8 mph - N/A   Partly Cloudy
4:30 PM 95.0 °F 96.0 °F 62.6 °F 34% 29.74 in 6.2 mi SE 9.2 mph - N/A   Partly Cloudy
5:00 PM 93.2 °F 94.1 °F 62.6 °F 36% 29.74 in 6.2 mi SSE 8.1 mph - N/A   Partly Cloudy
5:30 PM 93.2 °F 94.1 °F 62.6 °F 36% 29.74 in 6.2 mi SE 6.9 mph - N/A   Partly Cloudy
6:00 PM 93.2 °F 94.1 °F 62.6 °F 36% 29.74 in 5.6 mi ESE 5.8 mph - N/A   Unknown
6:30 PM 91.4 °F 92.1 °F 62.6 °F 38% 29.77 in 5.6 mi Calm Calm - N/A   Unknown
7:00 PM 89.6 °F 91.1 °F 64.4 °F 43% 29.77 in 5.6 mi SE 3.5 mph - N/A   Unknown
7:30 PM 89.6 °F 92.2 °F 66.2 °F 46% 29.77 in 5.6 mi SSE 4.6 mph - N/A   Unknown
8:00 PM 87.8 °F 90.4 °F 66.2 °F 49% 29.80 in 5.6 mi SSE 5.8 mph - N/A   Unknown
8:30 PM 86.0 °F 89.4 °F 68.0 °F 55% 29.80 in 5.6 mi South 5.8 mph - N/A   Unknown
9:00 PM 86.0 °F 89.4 °F 68.0 °F 55% 29.83 in 5.6 mi SSW 9.2 mph - N/A   Unknown
9:30 PM 84.2 °F 87.3 °F 68.0 °F 58% 29.83 in 5.6 mi South 5.8 mph - N/A   Unknown
10:00 PM 84.2 °F 88.4 °F 69.8 °F 62% 29.83 in 5.6 mi South 8.1 mph - N/A   Unknown
10:30 PM 84.2 °F 87.3 °F 68.0 °F 58% 29.83 in 5.6 mi SSW 6.9 mph - N/A   Unknown
11:00 PM 84.2 °F 87.3 °F 68.0 °F 58% 29.83 in 5.6 mi SSW 6.9 mph - N/A   Unknown
11:30 PM 84.2 °F 87.3 °F 68.0 °F 58% 29.83 in 5.6 mi SSW 6.9 mph - N/A   Unknown